Location: Juign�
(47.4000°N, 0.4833°W)
Time: 03:38:06
(UTC+01:00)

ISS - Visible Passes

Search period start: 24 March 2019 00:00
Search period end: 03 April 2019 01:00
Orbit: 408 x 411 km, 51.6° (Epoch: 23 March)

Date Brightness Start Highest point End Pass type
(mag) Time Alt. Az. Time Alt. Az. Time Alt. Az.
24 Mar -3.7 21:05:58 10° WSW 21:09:16 72° NNW 21:09:56 51° NE visible
25 Mar -3.9 20:15:18 10° WSW 20:18:36 79° SSE 20:21:39 12° ENE visible
25 Mar -1.9 21:52:15 10° W 21:54:26 31° NW 21:54:26 31° NW visible
26 Mar -2.9 21:01:25 10° W 21:04:37 47° NNW 21:06:00 28° NE visible
26 Mar -0.4 22:38:28 10° WNW 22:38:46 12° WNW 22:38:46 12° WNW visible
27 Mar -3.3 20:10:36 10° W 20:13:53 60° NNW 20:17:10 10° ENE visible
27 Mar -2.2 21:47:42 10° WNW 21:50:14 34° NNW 21:50:14 34° NNW visible
28 Mar -2.6 20:56:53 10° WNW 21:00:00 38° N 21:01:38 22° NE visible
28 Mar -0.7 22:33:44 10° WNW 22:34:24 15° WNW 22:34:24 15° WNW visible
29 Mar -2.8 20:06:01 10° W 20:09:12 42° N 20:12:23 10° ENE visible
29 Mar -2.6 21:43:00 10° WNW 21:45:44 40° NNW 21:45:44 40° NNW visible
30 Mar -2.7 20:52:13 10° WNW 20:55:22 38° N 20:57:03 22° ENE visible
30 Mar -0.9 22:28:54 10° WNW 22:29:48 17° WNW 22:29:48 17° WNW visible
31 Mar -2.6 21:01:24 10° WNW 21:04:31 37° N 21:07:39 10° ENE visible
31 Mar -3.3 22:38:10 10° WNW 22:41:05 56° NNW 22:41:05 56° NNW visible
01 Apr -3.1 21:47:26 10° WNW 21:50:39 47° NNE 21:52:22 23° ENE visible
01 Apr -1.1 23:24:04 10° WNW 23:25:07 18° WNW 23:25:07 18° WNW visible
02 Apr -2.8 20:56:38 10° WNW 20:59:48 40° N 21:02:57 10° E visible
02 Apr -3.7 22:33:16 10° WNW 22:36:24 73° WSW 22:36:24 73° WSW visible
